• In Kazakhstan
  • List of Countries
  • For 7 days
  • Water Temperature
  • Satellite Maps
  • Weather Map
  • News
  • Weather Widgets
  • user-avatar
    Login

    Hourly Weather Sucha

    Today, 22 February, Friday

    Time Temperature Precipitation Wind Pressure Humidity
    00:00 +5°C° 0.4 mm 5 mps 747 mmHg 90%
    01:00 +5°C° 0.4 mm 5 mps 747 mmHg 92%
    02:00 +5°C° 0.6 mm 5 mps 747 mmHg 92%
    03:00 +5°C° 0.6 mm 5 mps 747 mmHg 93%
    04:00 +5°C° 0.6 mm 5 mps 747 mmHg 94%
    05:00 +3°C° 0.4 mm 5 mps 748 mmHg 89%
    06:00 +2°C° 0.4 mm 6 mps 749 mmHg 85%
    07:00 -1°C° 0.4 mm 7 mps 750 mmHg 81%
    08:00 -1°C° 0 mm 7 mps 752 mmHg 75%
    09:00 -2°C° 0 mm 6 mps 753 mmHg 69%
    10:00 -2°C° 0 mm 6 mps 755 mmHg 63%
    11:00 -2°C° 0 mm 6 mps 756 mmHg 57%
    12:00 -2°C° 0 mm 6 mps 756 mmHg 50%
    13:00 -1°C° 0 mm 6 mps 757 mmHg 44%
    14:00 -2°C° 0 mm 6 mps 758 mmHg 43%
    15:00 -2°C° 0 mm 6 mps 758 mmHg 43%
    16:00 -2°C° 0 mm 5 mps 759 mmHg 42%
    17:00 -2°C° 0 mm 5 mps 760 mmHg 44%
    18:00 -4°C° 0 mm 5 mps 760 mmHg 47%
    19:00 -4°C° 0 mm 4 mps 761 mmHg 49%
    20:00 -4°C° 0 mm 4 mps 762 mmHg 48%
    21:00 -4°C° 0 mm 4 mps 762 mmHg 46%
    22:00 -4°C° 0 mm 4 mps 763 mmHg 45%
    23:00 -4°C° 0 mm 3 mps 763 mmHg 43%

    Tomorrow, 23 February, Saturday

    Time Temperature Precipitation Wind Pressure Humidity
    00:00 -4°C° 0 mm 3 mps 763 mmHg 41%
    01:00 -4°C° 0 mm 3 mps 764 mmHg 39%
    02:00 -5°C° 0 mm 3 mps 763 mmHg 39%
    03:00 -4°C° 0 mm 2 mps 763 mmHg 39%
    04:00 -4°C° 0 mm 2 mps 763 mmHg 38%
    05:00 -4°C° 0 mm 2 mps 763 mmHg 38%
    06:00 -4°C° 0 mm 2 mps 764 mmHg 39%
    07:00 -4°C° 0 mm 2 mps 764 mmHg 39%
    08:00 -3°C° 0 mm 2 mps 764 mmHg 36%
    09:00 -3°C° 0 mm 2 mps 764 mmHg 33%
    10:00 -2°C° 0 mm 2 mps 764 mmHg 31%
    11:00 -1°C° 0 mm 2 mps 764 mmHg 28%
    12:00 -1°C° 0 mm 2 mps 764 mmHg 26%
    13:00 +2°C° 0 mm 1 mps 764 mmHg 24%
    14:00 +2°C° 0 mm 1 mps 763 mmHg 25%
    15:00 +2°C° 0 mm 1 mps 763 mmHg 26%
    16:00 +2°C° 0 mm 1 mps 763 mmHg 27%
    17:00 +1°C° 0 mm 1 mps 763 mmHg 30%
    18:00 0°C° 0 mm 1 mps 762 mmHg 33%
    19:00 0°C° 0 mm 1 mps 762 mmHg 37%
    20:00 -1°C° 0 mm 1 mps 762 mmHg 37%
    21:00 -1°C° 0 mm 1 mps 763 mmHg 38%
    22:00 -1°C° 0 mm 1 mps 763 mmHg 38%
    23:00 -1°C° 0 mm 1 mps 762 mmHg 38%

    Day after tomorrow, 24 February, Sunday

    Time Temperature Precipitation Wind Pressure Humidity
    00:00 -1°C° 0 mm 1 mps 762 mmHg 38%
    01:00 -1°C° 0 mm 1 mps 762 mmHg 39%
    02:00 -1°C° 0 mm 1 mps 762 mmHg 38%
    03:00 0°C° 0 mm 1 mps 761 mmHg 38%
    04:00 0°C° 0 mm 1 mps 761 mmHg 37%
    05:00 0°C° 0 mm 1 mps 761 mmHg 37%
    06:00 0°C° 0 mm 1 mps 761 mmHg 36%
    07:00 0°C° 0 mm 1 mps 761 mmHg 36%
    08:00 +1°C° 0 mm 1 mps 761 mmHg 32%
    09:00 +2°C° 0 mm 1 mps 761 mmHg 29%
    10:00 +3°C° 0 mm 1 mps 761 mmHg 25%
    11:00 +4°C° 0 mm 1 mps 761 mmHg 24%
    12:00 +4°C° 0 mm 2 mps 760 mmHg 24%
    13:00 +5°C° 0 mm 2 mps 760 mmHg 23%
    14:00 +6°C° 0 mm 1 mps 760 mmHg 28%
    15:00 +6°C° 0 mm 1 mps 760 mmHg 34%
    16:00 +6°C° 0 mm 1 mps 760 mmHg 39%
    17:00 +5°C° 0 mm 1 mps 760 mmHg 42%
    18:00 +4°C° 0 mm 1 mps 760 mmHg 46%
    19:00 +3°C° 0 mm 1 mps 760 mmHg 49%
    20:00 +3°C° 0 mm 1 mps 760 mmHg 52%
    21:00 +3°C° 0 mm 1 mps 760 mmHg 55%
    22:00 +1°C° 0 mm 2 mps 760 mmHg 57%
    23:00 +1°C° 0 mm 2 mps 760 mmHg 59%

    25 February, Monday

    Time Temperature Precipitation Wind Pressure Humidity
    00:00 +1°C° 0 mm 2 mps 760 mmHg 62%
    01:00 -1°C° 0 mm 2 mps 760 mmHg 64%
    02:00 -1°C° 0 mm 2 mps 760 mmHg 65%
    03:00 -1°C° 0 mm 2 mps 760 mmHg 66%
    04:00 -1°C° 0 mm 2 mps 760 mmHg 68%
    05:00 -1°C° 0 mm 2 mps 760 mmHg 69%
    06:00 -1°C° 0 mm 2 mps 760 mmHg 70%
    07:00 -1°C° 0 mm 2 mps 760 mmHg 71%
    08:00 +1°C° 0 mm 2 mps 760 mmHg 67%
    09:00 +2°C° 0 mm 3 mps 760 mmHg 63%
    10:00 +3°C° 0 mm 3 mps 760 mmHg 59%
    11:00 +5°C° 0 mm 3 mps 760 mmHg 58%
    12:00 +7°C° 0 mm 3 mps 760 mmHg 57%
    13:00 +8°C° 0 mm 3 mps 759 mmHg 56%
    14:00 +8°C° 0 mm 3 mps 759 mmHg 58%
    15:00 +8°C° 0 mm 3 mps 759 mmHg 60%
    16:00 +8°C° 0 mm 3 mps 759 mmHg 62%
    17:00 +7°C° 0 mm 2 mps 759 mmHg 68%
    18:00 +6°C° 0 mm 2 mps 759 mmHg 74%
    19:00 +4°C° 0 mm 2 mps 759 mmHg 79%
    20:00 +4°C° 0 mm 2 mps 759 mmHg 80%
    21:00 +4°C° 0 mm 2 mps 759 mmHg 82%
    22:00 +3°C° 0 mm 2 mps 759 mmHg 83%
    23:00 +3°C° 0 mm 2 mps 758 mmHg 83%

    26 February, Tuesday

    Time Temperature Precipitation Wind Pressure Humidity
    00:00 +3°C° 0 mm 2 mps 758 mmHg 84%
    01:00 +2°C° 0 mm 2 mps 758 mmHg 84%
    02:00 +2°C° 0 mm 2 mps 757 mmHg 85%
    03:00 +2°C° 0 mm 2 mps 757 mmHg 86%
    04:00 +2°C° 0 mm 2 mps 756 mmHg 87%
    05:00 +1°C° 0 mm 3 mps 756 mmHg 87%
    06:00 +1°C° 0 mm 3 mps 756 mmHg 87%
    07:00 +1°C° 0 mm 3 mps 755 mmHg 87%
    08:00 +3°C° 0 mm 4 mps 755 mmHg 81%
    09:00 +4°C° 0 mm 4 mps 755 mmHg 75%
    10:00 +6°C° 0 mm 5 mps 755 mmHg 69%
    11:00 +6°C° 0 mm 5 mps 754 mmHg 68%
    12:00 +6°C° 0 mm 5 mps 754 mmHg 67%
    13:00 +7°C° 0 mm 5 mps 754 mmHg 66%
    14:00 +7°C° 0 mm 5 mps 754 mmHg 68%
    15:00 +7°C° 0 mm 4 mps 754 mmHg 70%
    16:00 +7°C° 0 mm 4 mps 754 mmHg 72%
    17:00 +6°C° 0 mm 4 mps 754 mmHg 77%
    18:00 +5°C° 0 mm 3 mps 754 mmHg 83%
    19:00 +4°C° 0 mm 3 mps 754 mmHg 89%
    20:00 +3°C° 0 mm 3 mps 754 mmHg 90%
    21:00 +3°C° 0 mm 3 mps 754 mmHg 92%
    22:00 +2°C° 0 mm 3 mps 754 mmHg 93%
    23:00 +2°C° 0 mm 3 mps 754 mmHg 94%

    27 February, Wednesday

    Time Temperature Precipitation Wind Pressure Humidity
    00:00 +2°C° 0 mm 3 mps 754 mmHg 94%
    01:00 +2°C° 0 mm 3 mps 754 mmHg 95%
    02:00 +1°C° 0 mm 3 mps 754 mmHg 95%
    03:00 +1°C° 0 mm 3 mps 754 mmHg 96%
    04:00 +2°C° 0 mm 2 mps 754 mmHg 96%
    05:00 +1°C° 0 mm 2 mps 754 mmHg 96%
    06:00 +1°C° 0 mm 2 mps 754 mmHg 96%
    07:00 +1°C° 0 mm 2 mps 754 mmHg 95%
    08:00 +2°C° 0 mm 2 mps 754 mmHg 87%
    09:00 +4°C° 0 mm 2 mps 754 mmHg 80%
    10:00 +5°C° 0 mm 2 mps 753 mmHg 72%
    11:00 +7°C° 0 mm 2 mps 753 mmHg 64%
    12:00 +8°C° 0 mm 2 mps 753 mmHg 56%
    13:00 +10°C° 0 mm 2 mps 752 mmHg 49%
    14:00 +10°C° 0 mm 2 mps 751 mmHg 48%
    15:00 +10°C° 0 mm 2 mps 751 mmHg 48%
    16:00 +12°C° 0 mm 2 mps 750 mmHg 47%
    17:00 +10°C° 0 mm 2 mps 750 mmHg 50%
    18:00 +8°C° 0 mm 2 mps 749 mmHg 54%
    19:00 +7°C° 0 mm 2 mps 749 mmHg 57%
    20:00 +7°C° 0 mm 2 mps 748 mmHg 62%
    21:00 +6°C° 0 mm 2 mps 747 mmHg 66%
    22:00 +6°C° 0 mm 2 mps 747 mmHg 70%
    23:00 +6°C° 0 mm 2 mps 746 mmHg 75%
    Show more